ETH933 HAAB-DFFD

Flight info

Callsign ETH933
Flight time 5h 18m
Altitude 38000
Route BRO3A BRO DCT KAFIA DCT IRAGA UB736 RUVKO/N0484F400 UB736 JOS UJ332 BDA UL683 KILMO UR984 OXIDU INEGO1M
Aircraft A35K/H-SDE2E3GHIJ3J4J5LM1ORWXY/LB1D1

Departure

Time 2026-04-28 14:39
Airport Addis Ababa Bole International Airport (HAAB)

Arrival

Time 2026-04-28 19:57
Airport Ouagadougou Thomas Sankara International Airport (DFFD)
Time Latitude Longitude Altitude Speed Heading
2026-04-28 14:01 8.98229 38.79673 7623 ft 0 kts 342°
2026-04-28 14:24 8.98212 38.79679 7442 ft 4 kts 343°
2026-04-28 14:24 8.98190 38.79685 7387 ft 4 kts 347°
2026-04-28 14:25 8.98168 38.79688 7627 ft 4 kts 14°
2026-04-28 14:25 8.98153 38.79683 7631 ft 4 kts 56°
2026-04-28 14:25 8.98146 38.79663 7629 ft 4 kts 84°
2026-04-28 14:25 8.98143 38.79637 7628 ft 4 kts 79°
2026-04-28 14:26 8.98140 38.79625 7629 ft 0 kts 72°
2026-04-28 14:31 8.98141 38.79625 7629 ft 0 kts 72°
2026-04-28 14:31 8.98144 38.79636 7628 ft 3 kts 72°
2026-04-28 14:31 8.98152 38.79662 7631 ft 5 kts 72°
2026-04-28 14:32 8.98165 38.79705 7626 ft 7 kts 72°
2026-04-28 14:32 8.98165 38.79738 7623 ft 2 kts 128°
2026-04-28 14:32 8.98123 38.79757 7623 ft 12 kts 163°
2026-04-28 14:32 8.98042 38.79782 7623 ft 12 kts 163°
2026-04-28 14:33 8.97963 38.79805 7624 ft 12 kts 164°
2026-04-28 14:33 8.97885 38.79821 7624 ft 11 kts 187°
2026-04-28 14:33 8.97844 38.79769 7623 ft 10 kts 255°
2026-04-28 14:33 8.97825 38.79698 7623 ft 12 kts 253°
2026-04-28 14:34 8.97761 38.79481 7622 ft 18 kts 253°
2026-04-28 14:34 8.97725 38.79358 7621 ft 18 kts 253°
2026-04-28 14:34 8.97690 38.79239 7622 ft 17 kts 253°
2026-04-28 14:35 8.97659 38.79131 7624 ft 15 kts 253°
2026-04-28 14:35 8.97630 38.79033 7625 ft 14 kts 253°
2026-04-28 14:35 8.97602 38.78940 7625 ft 13 kts 253°
2026-04-28 14:35 8.97576 38.78852 7626 ft 13 kts 253°
2026-04-28 14:36 8.97551 38.78768 7627 ft 13 kts 254°
2026-04-28 14:36 8.97525 38.78675 7627 ft 15 kts 254°
2026-04-28 14:36 8.97495 38.78570 7626 ft 16 kts 253°
2026-04-28 14:36 8.97462 38.78461 7627 ft 16 kts 253°
2026-04-28 14:37 8.97430 38.78353 7628 ft 16 kts 253°
2026-04-28 14:37 8.97387 38.78274 7627 ft 10 kts 200°
2026-04-28 14:37 8.97328 38.78306 7625 ft 11 kts 140°
2026-04-28 14:37 8.97259 38.78365 7621 ft 14 kts 131°
2026-04-28 14:38 8.97252 38.78437 7622 ft 0 kts 70°
2026-04-28 14:38 8.97293 38.78557 7623 ft 51 kts 72°
2026-04-28 14:39 8.97459 38.79130 7622 ft 117 kts 73°
2026-04-28 14:39 8.97748 38.80113 7625 ft 174 kts 73°
2026-04-28 14:39 8.98120 38.81403 8057 ft 193 kts 73°
2026-04-28 14:39 8.98416 38.82697 8934 ft 186 kts 77°
2026-04-28 14:40 8.98689 38.83975 9442 ft 189 kts 77°
2026-04-28 14:40 8.98912 38.84867 9572 ft 198 kts 74°
2026-04-28 14:40 8.99403 38.86717 9871 ft 213 kts 76°
2026-04-28 14:40 8.99767 38.88211 10091 ft 225 kts 76°
2026-04-28 14:41 9.00144 38.89805 10188 ft 242 kts 76°
2026-04-28 14:41 9.00538 38.91492 10501 ft 248 kts 76°
2026-04-28 14:41 9.00653 38.93221 10936 ft 250 kts 98°
2026-04-28 14:41 8.99985 38.94853 11399 ft 256 kts 124°
2026-04-28 14:42 8.98623 38.96031 11773 ft 266 kts 152°
2026-04-28 14:42 8.96801 38.96464 12201 ft 273 kts 180°
2026-04-28 14:42 8.94956 38.95993 12654 ft 279 kts 208°
2026-04-28 14:42 8.93487 38.94708 13031 ft 284 kts 236°
2026-04-28 14:43 8.92630 38.92922 13574 ft 280 kts 249°
2026-04-28 14:43 8.91922 38.91099 14167 ft 277 kts 252°
2026-04-28 14:43 8.91338 38.89238 14632 ft 278 kts 254°
2026-04-28 14:43 8.90788 38.87362 15048 ft 281 kts 255°
2026-04-28 14:44 8.90236 38.85450 15451 ft 285 kts 255°
2026-04-28 14:44 8.89537 38.83566 15829 ft 289 kts 244°
2026-04-28 14:44 8.88608 38.81716 16054 ft 301 kts 242°
2026-04-28 14:44 8.87617 38.79838 16229 ft 313 kts 242°
2026-04-28 14:45 8.86574 38.77860 16430 ft 325 kts 242°
2026-04-28 14:45 8.85498 38.75809 16613 ft 336 kts 242°
2026-04-28 14:45 8.84386 38.73684 16807 ft 347 kts 242°
2026-04-28 14:45 8.83241 38.71491 16996 ft 358 kts 242°
2026-04-28 14:46 8.82059 38.69227 17177 ft 369 kts 242°
2026-04-28 14:46 8.80908 38.66874 17351 ft 379 kts 246°
2026-04-28 14:46 8.80023 38.64334 17521 ft 389 kts 252°
2026-04-28 14:46 8.79243 38.61676 17663 ft 398 kts 253°
2026-04-28 14:47 8.78458 38.58963 17831 ft 406 kts 253°
2026-04-28 14:47 8.77653 38.56193 17998 ft 414 kts 253°
2026-04-28 14:47 8.76833 38.53381 18248 ft 419 kts 253°
2026-04-28 14:47 8.76004 38.50546 18540 ft 422 kts 253°
2026-04-28 14:48 8.75169 38.47695 18866 ft 424 kts 253°
2026-04-28 14:48 8.74330 38.44837 19198 ft 425 kts 253°
2026-04-28 14:48 8.73486 38.41964 19524 ft 428 kts 253°
2026-04-28 14:48 8.72638 38.39075 19844 ft 430 kts 252°
2026-04-28 14:49 8.71872 38.36147 20149 ft 432 kts 258°
2026-04-28 14:49 8.71352 38.33148 20470 ft 434 kts 261°
2026-04-28 14:49 8.70896 38.30125 20783 ft 436 kts 261°
2026-04-28 14:49 8.70442 38.27091 21097 ft 438 kts 261°
2026-04-28 14:50 8.69983 38.24043 21403 ft 440 kts 261°
2026-04-28 14:50 8.69520 38.20980 21694 ft 442 kts 261°
2026-04-28 14:50 8.69052 38.17900 21991 ft 444 kts 261°
2026-04-28 14:50 8.68588 38.14848 22267 ft 446 kts 261°
2026-04-28 14:51 8.68118 38.11757 22577 ft 447 kts 261°
2026-04-28 14:51 8.67635 38.08591 22865 ft 450 kts 261°
2026-04-28 14:51 8.67164 38.05461 23152 ft 451 kts 261°
2026-04-28 14:51 8.66692 38.02319 23448 ft 453 kts 261°
2026-04-28 14:52 8.66217 37.99170 23705 ft 455 kts 261°
2026-04-28 14:52 8.65746 37.96047 23932 ft 456 kts 261°
2026-04-28 14:52 8.65266 37.92871 24166 ft 458 kts 261°
2026-04-28 14:52 8.64785 37.89690 24401 ft 459 kts 261°
2026-04-28 14:53 8.64302 37.86495 24627 ft 460 kts 261°
2026-04-28 14:53 8.63817 37.83295 24853 ft 462 kts 261°
2026-04-28 14:53 8.63330 37.80082 25081 ft 463 kts 261°
2026-04-28 14:53 8.62842 37.76863 25305 ft 464 kts 261°
2026-04-28 14:54 8.62351 37.73629 25519 ft 466 kts 261°
2026-04-28 14:54 8.61860 37.70392 25751 ft 467 kts 261°
2026-04-28 14:54 8.61366 37.67139 25974 ft 469 kts 261°
2026-04-28 14:54 8.60871 37.63882 26197 ft 470 kts 261°
2026-04-28 14:55 8.60372 37.60605 26418 ft 472 kts 261°
2026-04-28 14:55 8.59873 37.57320 26630 ft 474 kts 261°
2026-04-28 14:55 8.59371 37.54025 26852 ft 475 kts 261°
2026-04-28 14:55 8.58868 37.50722 27079 ft 477 kts 261°
2026-04-28 14:56 8.58363 37.47408 27286 ft 478 kts 261°
2026-04-28 14:56 8.57862 37.44123 27485 ft 480 kts 261°
2026-04-28 14:56 8.57352 37.40784 27697 ft 482 kts 261°
2026-04-28 14:56 8.56833 37.37385 27897 ft 484 kts 261°
2026-04-28 14:57 8.56326 37.34068 28112 ft 486 kts 261°
2026-04-28 14:57 8.55978 37.31788 28247 ft 487 kts 261°
2026-04-28 14:57 8.55292 37.27303 28541 ft 489 kts 261°
2026-04-28 14:57 8.54771 37.23901 28777 ft 490 kts 261°
2026-04-28 14:58 8.54249 37.20495 28998 ft 492 kts 261°
2026-04-28 14:58 8.53724 37.17070 29214 ft 494 kts 261°
2026-04-28 14:58 8.53199 37.13639 29425 ft 496 kts 261°
2026-04-28 14:58 8.52670 37.10194 29653 ft 497 kts 261°
2026-04-28 14:59 8.52140 37.06740 29878 ft 499 kts 261°
2026-04-28 14:59 8.51606 37.03268 30092 ft 501 kts 261°
2026-04-28 14:59 8.51071 36.99784 30294 ft 502 kts 261°
2026-04-28 14:59 8.50533 36.96293 30517 ft 504 kts 261°
2026-04-28 15:00 8.49995 36.92793 30723 ft 505 kts 261°
2026-04-28 15:00 8.49454 36.89281 30933 ft 507 kts 261°
2026-04-28 15:00 8.48912 36.85756 31122 ft 509 kts 261°
2026-04-28 15:00 8.48366 36.82219 31326 ft 510 kts 261°
2026-04-28 15:01 8.47819 36.78672 31519 ft 512 kts 261°
2026-04-28 15:01 8.47269 36.75110 31682 ft 514 kts 261°
2026-04-28 15:01 8.46718 36.71542 31897 ft 515 kts 261°
2026-04-28 15:01 8.46165 36.67965 32094 ft 516 kts 261°
2026-04-28 15:02 8.45610 36.64376 32286 ft 518 kts 261°
2026-04-28 15:02 8.45055 36.60791 32482 ft 519 kts 261°
2026-04-28 15:02 8.44504 36.57229 32677 ft 520 kts 261°
2026-04-28 15:02 8.43945 36.53625 32951 ft 519 kts 261°
2026-04-28 15:03 8.43387 36.50027 33240 ft 518 kts 261°
2026-04-28 15:03 8.42829 36.46430 33526 ft 517 kts 261°
2026-04-28 15:03 8.42273 36.42845 33821 ft 517 kts 261°
2026-04-28 15:03 8.41716 36.39259 34098 ft 516 kts 261°
2026-04-28 15:04 8.41161 36.35689 34364 ft 515 kts 261°
2026-04-28 15:04 8.40606 36.32118 34652 ft 514 kts 261°
2026-04-28 15:04 8.40051 36.28552 34949 ft 512 kts 261°
2026-04-28 15:04 8.39499 36.25008 35247 ft 511 kts 261°
2026-04-28 15:05 8.38947 36.21464 35547 ft 509 kts 261°
2026-04-28 15:05 8.38399 36.17949 35850 ft 508 kts 261°
2026-04-28 15:05 8.37849 36.14423 36155 ft 506 kts 261°
2026-04-28 15:05 8.37301 36.10912 36440 ft 505 kts 261°
2026-04-28 15:06 8.36755 36.07415 36733 ft 504 kts 261°
2026-04-28 15:06 8.36210 36.03927 37013 ft 503 kts 261°
2026-04-28 15:06 8.35665 36.00442 37284 ft 502 kts 261°
2026-04-28 15:06 8.35120 35.96961 37544 ft 501 kts 261°
2026-04-28 15:07 8.34577 35.93490 37800 ft 500 kts 261°
2026-04-28 15:07 8.34033 35.90017 37983 ft 501 kts 261°
2026-04-28 15:07 8.33495 35.86583 37998 ft 502 kts 261°
2026-04-28 15:08 8.32400 35.79608 37995 ft 504 kts 261°
2026-04-28 15:08 8.31303 35.72620 37992 ft 504 kts 261°
2026-04-28 15:09 8.30204 35.65631 37984 ft 505 kts 261°
2026-04-28 15:09 8.29101 35.58621 37980 ft 505 kts 261°
2026-04-28 15:10 8.27997 35.51614 37966 ft 506 kts 261°
2026-04-28 15:10 8.26889 35.44594 37971 ft 506 kts 260°
2026-04-28 15:11 8.25780 35.37568 37962 ft 507 kts 260°
2026-04-28 15:11 8.24676 35.30588 37965 ft 507 kts 260°
2026-04-28 15:12 8.23564 35.23564 37963 ft 507 kts 260°
2026-04-28 15:12 8.22450 35.16537 37947 ft 507 kts 260°
2026-04-28 15:13 8.21334 35.09503 37947 ft 508 kts 260°
2026-04-28 15:13 8.20214 35.02458 37939 ft 508 kts 260°
2026-04-28 15:14 8.19095 34.95419 37940 ft 508 kts 260°
2026-04-28 15:14 8.17974 34.88376 37927 ft 508 kts 260°
2026-04-28 15:15 8.16850 34.81329 37910 ft 509 kts 260°
2026-04-28 15:15 8.15725 34.74280 37908 ft 509 kts 260°
2026-04-28 15:16 8.14607 34.67282 37882 ft 508 kts 260°
2026-04-28 15:16 8.13482 34.60246 37885 ft 508 kts 260°
2026-04-28 15:17 8.13000 34.53149 37881 ft 508 kts 272°
2026-04-28 15:17 8.13420 34.46044 37874 ft 507 kts 274°
2026-04-28 15:18 8.13965 34.38940 37851 ft 507 kts 274°
2026-04-28 15:18 8.14487 34.31846 37859 ft 507 kts 274°
2026-04-28 15:19 8.14977 34.24763 37856 ft 506 kts 274°
2026-04-28 15:19 8.15457 34.17665 37838 ft 506 kts 274°
2026-04-28 15:20 8.15935 34.10586 37838 ft 506 kts 274°
2026-04-28 15:20 8.16412 34.03500 37840 ft 506 kts 274°
2026-04-28 15:21 8.16890 33.96414 37841 ft 506 kts 274°
2026-04-28 15:21 8.17362 33.89380 37837 ft 506 kts 274°
2026-04-28 15:22 8.17837 33.82292 37833 ft 506 kts 274°
2026-04-28 15:22 8.18312 33.75194 37828 ft 507 kts 274°
2026-04-28 15:23 8.18784 33.68103 37822 ft 507 kts 274°
2026-04-28 15:23 8.19256 33.61003 37813 ft 507 kts 274°
2026-04-28 15:24 8.19727 33.53899 37810 ft 507 kts 274°
2026-04-28 15:24 8.20197 33.46795 37820 ft 507 kts 274°
2026-04-28 15:25 8.20665 33.39703 37818 ft 507 kts 274°
2026-04-28 15:25 8.21129 33.32649 37803 ft 506 kts 274°
2026-04-28 15:26 8.21593 33.25563 37798 ft 506 kts 274°
2026-04-28 15:26 8.22057 33.18476 37802 ft 505 kts 274°
2026-04-28 15:27 8.22518 33.11406 37802 ft 505 kts 274°
2026-04-28 15:27 8.22901 33.05534 37808 ft 504 kts 274°
2026-04-28 15:28 8.23359 32.98474 37799 ft 504 kts 274°
2026-04-28 15:28 8.23815 32.91422 37802 ft 503 kts 274°
2026-04-28 15:29 8.24270 32.84373 37792 ft 503 kts 274°
2026-04-28 15:29 8.24724 32.77334 37792 ft 502 kts 274°
2026-04-28 15:30 8.25175 32.70313 37782 ft 502 kts 274°
2026-04-28 15:30 8.25625 32.63272 37780 ft 502 kts 274°
2026-04-28 15:31 8.26074 32.56243 37793 ft 502 kts 274°
2026-04-28 15:31 8.26519 32.49261 37785 ft 502 kts 274°
2026-04-28 15:32 8.26969 32.42181 37789 ft 502 kts 274°
2026-04-28 15:32 8.27414 32.35151 37786 ft 502 kts 274°
2026-04-28 15:33 8.27855 32.28172 37780 ft 502 kts 274°
2026-04-28 15:33 8.28298 32.21131 37782 ft 502 kts 274°
2026-04-28 15:34 8.28740 32.14099 37788 ft 502 kts 274°
2026-04-28 15:34 8.29180 32.07067 37778 ft 502 kts 274°
2026-04-28 15:35 8.29620 32.00025 37786 ft 502 kts 274°
2026-04-28 15:35 8.30277 31.89470 37783 ft 502 kts 273°
2026-04-28 15:36 8.30713 31.82438 37782 ft 502 kts 273°
2026-04-28 15:36 8.31148 31.75399 37781 ft 502 kts 273°
2026-04-28 15:37 8.31579 31.68410 37780 ft 502 kts 273°
2026-04-28 15:37 8.32011 31.61381 37781 ft 502 kts 273°
2026-04-28 15:38 8.32443 31.54342 37781 ft 502 kts 273°
2026-04-28 15:38 8.32872 31.47313 37783 ft 502 kts 273°
2026-04-28 15:39 8.33301 31.40282 37782 ft 502 kts 273°
2026-04-28 15:39 8.33728 31.33255 37773 ft 502 kts 273°
2026-04-28 15:40 8.34155 31.26213 37785 ft 502 kts 273°
2026-04-28 15:40 8.34579 31.19180 37774 ft 502 kts 273°
2026-04-28 15:41 8.35003 31.12142 37783 ft 502 kts 273°
2026-04-28 15:41 8.35426 31.05102 37777 ft 502 kts 273°
2026-04-28 15:42 8.35848 30.98068 37778 ft 502 kts 273°
2026-04-28 15:42 8.36057 30.94553 39413 ft 501 kts 273°
2026-04-28 15:42 8.36266 30.91056 39169 ft 496 kts 273°
2026-04-28 15:43 8.36473 30.87592 38914 ft 493 kts 273°
2026-04-28 15:43 8.36678 30.84143 38673 ft 492 kts 273°
2026-04-28 15:43 8.36883 30.80695 38425 ft 492 kts 273°
2026-04-28 15:43 8.37088 30.77244 38178 ft 492 kts 273°
2026-04-28 15:44 8.37291 30.73808 38012 ft 492 kts 273°
2026-04-28 15:44 8.37493 30.70396 37999 ft 492 kts 273°
2026-04-28 15:44 8.37901 30.63471 38000 ft 492 kts 273°
2026-04-28 15:45 8.38308 30.56567 38000 ft 492 kts 273°
2026-04-28 15:45 8.38710 30.49711 38000 ft 492 kts 273°
2026-04-28 15:46 8.39113 30.42819 38000 ft 492 kts 273°
2026-04-28 15:46 8.39515 30.35926 38000 ft 492 kts 273°
2026-04-28 15:47 8.39916 30.29030 38000 ft 492 kts 273°
2026-04-28 15:47 8.40315 30.22136 38000 ft 492 kts 273°
2026-04-28 15:48 8.40714 30.15238 38000 ft 492 kts 273°
2026-04-28 15:48 8.41111 30.08341 38000 ft 492 kts 273°
2026-04-28 15:49 8.41507 30.01449 38000 ft 492 kts 273°
2026-04-28 15:49 8.41902 29.94556 38000 ft 492 kts 273°
2026-04-28 15:50 8.42295 29.87658 38000 ft 492 kts 273°
2026-04-28 15:50 8.42688 29.80765 38000 ft 492 kts 273°
2026-04-28 15:51 8.43076 29.73912 38000 ft 492 kts 273°
2026-04-28 15:51 8.43466 29.67015 38000 ft 492 kts 273°
2026-04-28 15:52 8.43855 29.60128 38000 ft 492 kts 273°
2026-04-28 15:52 8.44243 29.53222 38000 ft 492 kts 273°
2026-04-28 15:53 8.44629 29.46330 38000 ft 492 kts 273°
2026-04-28 15:53 8.45014 29.39435 38000 ft 492 kts 273°
2026-04-28 15:54 8.45398 29.32539 38000 ft 492 kts 273°
2026-04-28 15:54 8.45781 29.25641 38000 ft 492 kts 273°
2026-04-28 15:55 8.46163 29.18742 38000 ft 492 kts 273°
2026-04-28 15:55 8.46540 29.11892 38000 ft 492 kts 273°
2026-04-28 15:56 8.46920 29.04995 38000 ft 492 kts 273°
2026-04-28 15:56 8.47297 28.98098 38000 ft 492 kts 273°
2026-04-28 15:57 8.47674 28.91199 38000 ft 492 kts 273°
2026-04-28 15:57 8.48050 28.84305 38000 ft 492 kts 273°
2026-04-28 15:58 8.48424 28.77409 38000 ft 492 kts 273°
2026-04-28 15:58 8.48797 28.70511 38000 ft 492 kts 273°
2026-04-28 15:59 8.49106 28.64777 38000 ft 492 kts 273°
2026-04-28 15:59 8.49540 28.56710 38000 ft 492 kts 273°
2026-04-28 16:00 8.49907 28.49860 38000 ft 492 kts 273°
2026-04-28 16:00 8.50275 28.42966 38000 ft 492 kts 273°
2026-04-28 16:01 8.50642 28.36062 38000 ft 492 kts 273°
2026-04-28 16:01 8.51008 28.29167 38000 ft 492 kts 273°
2026-04-28 16:02 8.51372 28.22270 38000 ft 492 kts 272°
2026-04-28 16:02 8.51736 28.15367 38000 ft 492 kts 272°
2026-04-28 16:03 8.52098 28.08474 38000 ft 492 kts 272°
2026-04-28 16:03 8.52459 28.01575 38000 ft 492 kts 272°
2026-04-28 16:04 8.52819 27.94672 38000 ft 492 kts 272°
2026-04-28 16:04 8.53177 27.87774 38000 ft 492 kts 272°
2026-04-28 16:05 8.53534 27.80876 38000 ft 492 kts 272°
2026-04-28 16:05 8.53890 27.73977 38000 ft 492 kts 272°
2026-04-28 16:06 8.54243 27.67125 38000 ft 492 kts 272°
2026-04-28 16:06 8.54596 27.60226 38000 ft 492 kts 272°
2026-04-28 16:07 8.54949 27.53324 38000 ft 492 kts 272°
2026-04-28 16:08 8.55475 27.42975 38000 ft 492 kts 272°
2026-04-28 16:08 8.55825 27.36073 38000 ft 492 kts 272°
2026-04-28 16:09 8.56346 27.25725 38000 ft 492 kts 272°
2026-04-28 16:10 8.56866 27.15372 38000 ft 492 kts 272°
2026-04-28 16:10 8.57382 27.05023 38000 ft 492 kts 272°
2026-04-28 16:11 8.58063 26.91267 38000 ft 492 kts 272°
2026-04-28 16:12 8.58573 26.80916 38000 ft 492 kts 272°
2026-04-28 16:13 8.59080 26.70562 38000 ft 492 kts 272°
2026-04-28 16:14 8.59752 26.56765 38000 ft 492 kts 272°
2026-04-28 16:15 8.60419 26.42962 38000 ft 492 kts 272°
2026-04-28 16:15 8.60750 26.36063 38000 ft 492 kts 272°
2026-04-28 16:16 8.61246 26.25701 38000 ft 492 kts 272°
2026-04-28 16:17 8.61738 26.15351 38000 ft 492 kts 272°
2026-04-28 16:17 8.62065 26.08450 38000 ft 492 kts 272°
2026-04-28 16:18 8.62390 26.01552 38000 ft 492 kts 272°
2026-04-28 16:18 8.62714 25.94649 38000 ft 492 kts 272°
2026-04-28 16:19 8.63037 25.87745 38000 ft 492 kts 272°
2026-04-28 16:19 8.63359 25.80841 38000 ft 492 kts 272°
2026-04-28 16:20 8.63679 25.73935 38000 ft 492 kts 272°
2026-04-28 16:20 8.63999 25.67038 38000 ft 492 kts 272°
2026-04-28 16:21 8.64316 25.60136 38000 ft 492 kts 272°
2026-04-28 16:21 8.64580 25.54392 38001 ft 492 kts 272°
2026-04-28 16:22 8.64896 25.47491 38000 ft 492 kts 272°
2026-04-28 16:22 8.65261 25.39469 38000 ft 492 kts 272°
2026-04-28 16:23 8.65524 25.33687 38000 ft 492 kts 272°
2026-04-28 16:23 8.65836 25.26785 38000 ft 492 kts 272°
2026-04-28 16:24 8.66146 25.19881 38000 ft 492 kts 272°
2026-04-28 16:24 8.66454 25.13022 38000 ft 492 kts 272°
2026-04-28 16:25 8.66762 25.06120 38000 ft 492 kts 272°
2026-04-28 16:25 8.67069 24.99212 38000 ft 492 kts 272°
2026-04-28 16:26 8.67375 24.92313 38000 ft 492 kts 272°
2026-04-28 16:26 8.67680 24.85409 38000 ft 492 kts 272°
2026-04-28 16:27 8.67983 24.78500 38000 ft 492 kts 272°
2026-04-28 16:28 8.68436 24.68151 38000 ft 492 kts 272°
2026-04-28 16:28 8.68736 24.61245 38000 ft 492 kts 272°
2026-04-28 16:29 8.69184 24.50888 38000 ft 492 kts 272°
2026-04-28 16:30 8.69630 24.40526 38000 ft 492 kts 272°
2026-04-28 16:30 8.69925 24.33627 38000 ft 492 kts 272°
2026-04-28 16:31 8.70217 24.26764 38000 ft 492 kts 272°
2026-04-28 16:31 8.70512 24.19813 38000 ft 492 kts 272°
2026-04-28 16:32 8.70801 24.12956 38000 ft 492 kts 272°
2026-04-28 16:32 8.71236 24.02598 38000 ft 492 kts 272°
2026-04-28 16:33 8.71476 23.96860 38000 ft 492 kts 272°
2026-04-28 16:33 8.71812 23.88787 38000 ft 492 kts 272°
2026-04-28 16:34 8.72098 23.81883 38000 ft 492 kts 272°
2026-04-28 16:34 8.72383 23.74979 38000 ft 492 kts 272°
2026-04-28 16:35 8.72666 23.68074 38000 ft 492 kts 272°
2026-04-28 16:35 8.72949 23.61164 38000 ft 492 kts 272°
2026-04-28 16:36 8.73580 23.54341 38001 ft 492 kts 282°
2026-04-28 16:36 8.76049 23.47877 38001 ft 492 kts 301°
2026-04-28 16:37 8.79791 23.42138 38000 ft 493 kts 304°
2026-04-28 16:38 8.85743 23.33651 38000 ft 493 kts 305°
2026-04-28 16:38 8.89690 23.27983 38000 ft 493 kts 304°
2026-04-28 16:39 8.93619 23.22295 38000 ft 493 kts 304°
2026-04-28 16:39 8.97538 23.16605 38000 ft 493 kts 304°
2026-04-28 16:40 9.01459 23.10911 38000 ft 493 kts 304°
2026-04-28 16:40 9.05380 23.05216 38000 ft 493 kts 304°
2026-04-28 16:41 9.09298 22.99525 38000 ft 493 kts 304°
2026-04-28 16:41 9.13218 22.93827 38001 ft 493 kts 304°
2026-04-28 16:42 9.17107 22.88173 38000 ft 493 kts 304°
2026-04-28 16:42 9.21025 22.82474 38000 ft 493 kts 304°
2026-04-28 16:43 9.24942 22.76772 38000 ft 493 kts 304°
2026-04-28 16:43 9.28858 22.71071 38000 ft 493 kts 304°
2026-04-28 16:44 9.32773 22.65367 38000 ft 493 kts 304°
2026-04-28 16:44 9.36683 22.59669 38000 ft 493 kts 304°
2026-04-28 16:45 9.40597 22.53962 38000 ft 493 kts 304°
2026-04-28 16:45 9.44509 22.48256 38000 ft 493 kts 304°
2026-04-28 16:46 9.48419 22.42551 38000 ft 493 kts 304°
2026-04-28 16:46 9.52074 22.36680 38001 ft 493 kts 295°
2026-04-28 16:47 9.54059 22.30086 38000 ft 491 kts 276°
2026-04-28 16:47 9.54273 22.23177 38000 ft 491 kts 269°
2026-04-28 16:48 9.54112 22.16259 38001 ft 492 kts 268°
2026-04-28 16:48 9.53926 22.09381 38000 ft 492 kts 268°
2026-04-28 16:49 9.53773 22.02457 38000 ft 492 kts 269°
2026-04-28 16:49 9.53639 21.95538 38000 ft 492 kts 269°
2026-04-28 16:50 9.53507 21.88610 38000 ft 492 kts 269°
2026-04-28 16:50 9.53373 21.81689 38000 ft 492 kts 269°
2026-04-28 16:51 9.53237 21.74763 38000 ft 492 kts 269°
2026-04-28 16:51 9.53098 21.67837 38000 ft 492 kts 269°
2026-04-28 16:52 9.52961 21.60917 38000 ft 492 kts 269°
2026-04-28 16:52 9.52894 21.53994 38000 ft 492 kts 269°
2026-04-28 16:53 9.52855 21.47110 38000 ft 492 kts 269°
2026-04-28 16:53 9.52804 21.40183 38000 ft 492 kts 269°
2026-04-28 16:54 9.52743 21.33259 38000 ft 492 kts 269°
2026-04-28 16:54 9.52679 21.26337 38000 ft 492 kts 269°
2026-04-28 16:55 9.52613 21.19411 38000 ft 492 kts 269°
2026-04-28 16:55 9.52546 21.12486 38000 ft 492 kts 269°
2026-04-28 16:56 9.52478 21.05559 38000 ft 492 kts 269°
2026-04-28 16:56 9.52409 20.98635 38000 ft 492 kts 269°
2026-04-28 16:57 9.52338 20.91710 38000 ft 492 kts 269°
2026-04-28 16:57 9.52266 20.84786 38000 ft 492 kts 269°
2026-04-28 16:58 9.52193 20.77862 38000 ft 492 kts 269°
2026-04-28 16:58 9.52118 20.70982 38000 ft 492 kts 269°
2026-04-28 16:59 9.52042 20.64055 38000 ft 492 kts 269°
2026-04-28 16:59 9.51965 20.57136 38000 ft 492 kts 269°
2026-04-28 17:00 9.51886 20.50207 38000 ft 492 kts 269°
2026-04-28 17:00 9.51806 20.43284 38000 ft 492 kts 269°
2026-04-28 17:01 9.51724 20.36359 38000 ft 492 kts 269°
2026-04-28 17:01 9.51641 20.29432 38000 ft 492 kts 269°
2026-04-28 17:02 9.51541 20.22507 38000 ft 492 kts 269°
2026-04-28 17:02 9.51421 20.15583 38000 ft 492 kts 269°
2026-04-28 17:03 9.51240 20.05195 38000 ft 492 kts 269°
2026-04-28 17:03 9.51122 19.98278 38000 ft 492 kts 269°
2026-04-28 17:04 9.50944 19.87893 38000 ft 492 kts 269°
2026-04-28 17:05 9.50763 19.77547 38000 ft 492 kts 269°
2026-04-28 17:06 9.50577 19.67163 38000 ft 492 kts 269°
2026-04-28 17:06 9.50389 19.56782 38000 ft 492 kts 269°
2026-04-28 17:07 9.50262 19.49859 38000 ft 492 kts 269°
2026-04-28 17:07 9.50134 19.42938 38000 ft 492 kts 269°
2026-04-28 17:08 9.50004 19.36009 38000 ft 492 kts 269°
2026-04-28 17:08 9.49872 19.29085 38000 ft 492 kts 269°
2026-04-28 17:09 9.49741 19.22210 38000 ft 492 kts 269°
2026-04-28 17:09 9.49606 19.15239 38000 ft 492 kts 269°
2026-04-28 17:10 9.49471 19.08362 38000 ft 492 kts 269°
2026-04-28 17:10 9.49335 19.01443 38000 ft 492 kts 269°
2026-04-28 17:11 9.49200 18.94517 38000 ft 492 kts 268°
2026-04-28 17:11 9.49054 18.87595 38000 ft 492 kts 268°
2026-04-28 17:12 9.48906 18.80672 38000 ft 492 kts 268°
2026-04-28 17:12 9.48759 18.73751 38000 ft 492 kts 268°
2026-04-28 17:13 9.48617 18.66826 38000 ft 492 kts 268°
2026-04-28 17:13 9.48470 18.59906 38000 ft 492 kts 268°
2026-04-28 17:14 9.48321 18.52977 38000 ft 492 kts 268°
2026-04-28 17:14 9.48172 18.46060 38000 ft 492 kts 268°
2026-04-28 17:15 9.48022 18.39135 38000 ft 492 kts 268°
2026-04-28 17:15 9.47870 18.32213 38000 ft 492 kts 268°
2026-04-28 17:16 9.47718 18.25292 38000 ft 492 kts 268°
2026-04-28 17:16 9.47563 18.18368 38000 ft 492 kts 268°
2026-04-28 17:17 9.47409 18.11490 38000 ft 492 kts 268°
2026-04-28 17:17 9.47252 18.04567 38000 ft 492 kts 268°
2026-04-28 17:18 9.47094 17.97647 38000 ft 492 kts 268°
2026-04-28 17:18 9.46960 17.91848 38000 ft 492 kts 268°
2026-04-28 17:19 9.46801 17.84974 38000 ft 492 kts 268°
2026-04-28 17:19 9.46639 17.78052 38000 ft 492 kts 268°
2026-04-28 17:20 9.46475 17.71130 38000 ft 492 kts 268°
2026-04-28 17:20 9.46310 17.64209 38000 ft 492 kts 268°
2026-04-28 17:21 9.46144 17.57291 38000 ft 492 kts 268°
2026-04-28 17:22 9.45893 17.46905 38000 ft 492 kts 268°
2026-04-28 17:22 9.45723 17.39981 38001 ft 492 kts 268°
2026-04-28 17:23 9.45466 17.29600 38000 ft 492 kts 268°
2026-04-28 17:23 9.45293 17.22682 38000 ft 492 kts 268°
2026-04-28 17:24 9.45119 17.15758 38000 ft 492 kts 268°
2026-04-28 17:24 9.44945 17.08889 38000 ft 492 kts 268°
2026-04-28 17:25 9.44679 16.98504 38000 ft 492 kts 268°
2026-04-28 17:26 9.44500 16.91583 38000 ft 492 kts 268°
2026-04-28 17:26 9.44320 16.84663 38000 ft 492 kts 268°
2026-04-28 17:27 9.44138 16.77739 38000 ft 492 kts 268°
2026-04-28 17:27 9.43955 16.70818 38000 ft 492 kts 268°
2026-04-28 17:28 9.43770 16.63903 38000 ft 492 kts 268°
2026-04-28 17:28 9.43491 16.53520 38000 ft 492 kts 268°
2026-04-28 17:29 9.43305 16.46648 38000 ft 492 kts 268°
2026-04-28 17:30 9.43021 16.36267 38000 ft 492 kts 268°
2026-04-28 17:30 9.42734 16.25889 38000 ft 492 kts 268°
2026-04-28 17:31 9.42444 16.15509 38000 ft 492 kts 268°
2026-04-28 17:32 9.42151 16.05130 38000 ft 492 kts 268°
2026-04-28 17:32 9.41954 15.98206 38000 ft 492 kts 268°
2026-04-28 17:33 9.41757 15.91332 38000 ft 492 kts 268°
2026-04-28 17:33 9.41590 15.85539 38000 ft 492 kts 268°
2026-04-28 17:34 9.41357 15.77496 38000 ft 492 kts 268°
2026-04-28 17:34 9.41159 15.70574 38000 ft 492 kts 268°
2026-04-28 17:35 9.40954 15.63657 38000 ft 492 kts 268°
2026-04-28 17:35 9.40747 15.56738 38000 ft 492 kts 268°
2026-04-28 17:36 9.40541 15.49818 38000 ft 492 kts 268°
2026-04-28 17:36 9.40334 15.42899 38000 ft 492 kts 268°
2026-04-28 17:37 9.40125 15.35981 38000 ft 492 kts 268°
2026-04-28 17:37 9.39916 15.29064 38000 ft 492 kts 268°
2026-04-28 17:38 9.39706 15.22187 38000 ft 492 kts 268°
2026-04-28 17:38 9.39493 15.15274 38000 ft 492 kts 268°
2026-04-28 17:39 9.39278 15.08353 38000 ft 492 kts 268°
2026-04-28 17:40 9.38954 14.97979 38000 ft 492 kts 268°
2026-04-28 17:40 9.38737 14.91060 38000 ft 492 kts 268°
2026-04-28 17:41 9.38518 14.84139 38000 ft 492 kts 268°
2026-04-28 17:41 9.38297 14.77219 38000 ft 492 kts 268°
2026-04-28 17:42 9.38076 14.70301 38000 ft 492 kts 268°
2026-04-28 17:42 9.37853 14.63385 38000 ft 492 kts 268°
2026-04-28 17:43 9.37628 14.56469 38000 ft 492 kts 268°
2026-04-28 17:43 9.37403 14.49553 38000 ft 492 kts 268°
2026-04-28 17:44 9.37176 14.42635 38000 ft 492 kts 268°
2026-04-28 17:44 9.36947 14.35713 38000 ft 492 kts 268°
2026-04-28 17:45 9.36717 14.28794 38000 ft 492 kts 268°
2026-04-28 17:45 9.36487 14.21882 38000 ft 492 kts 268°
2026-04-28 17:46 9.36254 14.14967 38000 ft 492 kts 268°
2026-04-28 17:46 9.36020 14.08037 38000 ft 492 kts 268°
2026-04-28 17:47 9.35785 14.01126 38000 ft 492 kts 268°
2026-04-28 17:47 9.35549 13.94212 38000 ft 492 kts 268°
2026-04-28 17:48 9.35311 13.87295 38000 ft 492 kts 268°
2026-04-28 17:48 9.35074 13.80421 38000 ft 492 kts 268°
2026-04-28 17:49 9.34831 13.73505 38000 ft 492 kts 268°
2026-04-28 17:49 9.34585 13.66547 38000 ft 492 kts 268°
2026-04-28 17:50 9.34341 13.59673 38000 ft 492 kts 268°
2026-04-28 17:50 9.34095 13.52753 38000 ft 492 kts 268°
2026-04-28 17:51 9.33847 13.45839 38000 ft 492 kts 268°
2026-04-28 17:51 9.33598 13.38921 38000 ft 492 kts 268°
2026-04-28 17:52 9.33648 13.32006 38000 ft 492 kts 273°
2026-04-28 17:52 9.34399 13.21654 38001 ft 492 kts 274°
2026-04-28 17:53 9.34944 13.14793 38000 ft 492 kts 274°
2026-04-28 17:53 9.35485 13.07849 38000 ft 492 kts 274°
2026-04-28 17:54 9.36014 13.00949 38000 ft 492 kts 274°
2026-04-28 17:54 9.36541 12.94045 38000 ft 492 kts 274°
2026-04-28 17:55 9.37059 12.87180 38000 ft 492 kts 274°
2026-04-28 17:55 9.37565 12.80282 38000 ft 492 kts 274°
2026-04-28 17:56 9.38068 12.73382 38000 ft 492 kts 274°
2026-04-28 17:56 9.38574 12.66465 38000 ft 492 kts 274°
2026-04-28 17:57 9.39078 12.59563 38000 ft 492 kts 274°
2026-04-28 17:57 9.39582 12.52651 38000 ft 492 kts 274°
2026-04-28 17:58 9.40084 12.45747 38000 ft 492 kts 274°
2026-04-28 17:58 9.40584 12.38843 38000 ft 492 kts 274°
2026-04-28 17:59 9.41083 12.31945 38000 ft 492 kts 274°
2026-04-28 17:59 9.41581 12.25030 38000 ft 492 kts 274°
2026-04-28 18:00 9.42074 12.18171 38000 ft 492 kts 274°
2026-04-28 18:00 9.42570 12.11263 38000 ft 492 kts 274°
2026-04-28 18:01 9.43063 12.04357 38000 ft 492 kts 274°
2026-04-28 18:01 9.43556 11.97445 38000 ft 492 kts 274°
2026-04-28 18:02 9.44047 11.90542 38000 ft 492 kts 274°
2026-04-28 18:02 9.44537 11.83631 38000 ft 492 kts 274°
2026-04-28 18:03 9.45025 11.76728 38000 ft 492 kts 274°
2026-04-28 18:03 9.45513 11.69817 38000 ft 492 kts 274°
2026-04-28 18:04 9.45995 11.62955 38000 ft 492 kts 274°
2026-04-28 18:04 9.46479 11.56050 38000 ft 492 kts 274°
2026-04-28 18:05 9.46884 11.50263 38000 ft 492 kts 274°
2026-04-28 18:05 9.47445 11.42226 38000 ft 492 kts 274°
2026-04-28 18:06 9.47924 11.35326 38000 ft 492 kts 274°
2026-04-28 18:06 9.48403 11.28414 38001 ft 492 kts 274°
2026-04-28 18:07 9.48881 11.21506 38000 ft 492 kts 274°
2026-04-28 18:07 9.49358 11.14593 38000 ft 492 kts 274°
2026-04-28 18:08 9.49833 11.07678 38000 ft 492 kts 274°
2026-04-28 18:08 9.50307 11.00768 38113 ft 492 kts 274°
2026-04-28 18:09 9.50543 10.97317 38423 ft 491 kts 274°
2026-04-28 18:09 9.50777 10.93862 38710 ft 490 kts 274°
2026-04-28 18:09 9.51009 10.90423 38970 ft 490 kts 274°
2026-04-28 18:09 9.51242 10.86975 39208 ft 490 kts 274°
2026-04-28 18:10 9.51473 10.83533 39435 ft 490 kts 274°
2026-04-28 18:10 9.51704 10.80094 39657 ft 490 kts 274°
2026-04-28 18:10 9.51935 10.76652 39870 ft 490 kts 274°
2026-04-28 18:10 9.52167 10.73203 39990 ft 492 kts 274°
2026-04-28 18:11 9.52630 10.66285 40000 ft 492 kts 274°
2026-04-28 18:11 9.53092 10.59373 40003 ft 492 kts 274°
2026-04-28 18:12 9.53549 10.52505 40000 ft 492 kts 274°
2026-04-28 18:12 9.54008 10.45592 40000 ft 492 kts 274°
2026-04-28 18:13 9.54391 10.39802 40000 ft 492 kts 274°
2026-04-28 18:13 9.54848 10.32888 40000 ft 492 kts 274°
2026-04-28 18:14 9.55303 10.25971 40000 ft 492 kts 274°
2026-04-28 18:14 9.55756 10.19065 40002 ft 492 kts 274°
2026-04-28 18:15 9.56209 10.12148 40000 ft 492 kts 274°
2026-04-28 18:15 9.56657 10.05275 40000 ft 492 kts 274°
2026-04-28 18:16 9.57107 9.98365 40000 ft 492 kts 274°
2026-04-28 18:16 9.57555 9.91444 40003 ft 492 kts 273°
2026-04-28 18:17 9.58002 9.84526 40002 ft 492 kts 273°
2026-04-28 18:17 9.58448 9.77614 40002 ft 492 kts 273°
2026-04-28 18:18 9.58892 9.70703 40000 ft 492 kts 273°
2026-04-28 18:18 9.59260 9.64951 40000 ft 492 kts 273°
2026-04-28 18:19 9.59776 9.56869 40000 ft 492 kts 273°
2026-04-28 18:19 9.60216 9.49949 40000 ft 492 kts 273°
2026-04-28 18:20 9.60652 9.43084 40001 ft 492 kts 273°
2026-04-28 18:20 9.61089 9.36169 40000 ft 492 kts 273°
2026-04-28 18:21 9.61516 9.29247 40001 ft 492 kts 273°
2026-04-28 18:21 9.61934 9.22332 40001 ft 492 kts 273°
2026-04-28 18:22 9.62351 9.15424 40002 ft 492 kts 273°
2026-04-28 18:22 9.62558 9.11954 38472 ft 492 kts 274°
2026-04-28 18:22 9.62766 9.08493 38708 ft 492 kts 274°
2026-04-28 18:23 9.62975 9.05033 38936 ft 492 kts 274°
2026-04-28 18:23 9.63184 9.01576 39166 ft 492 kts 274°
2026-04-28 18:23 9.63393 8.98109 39401 ft 492 kts 274°
2026-04-28 18:23 9.63602 8.94652 39644 ft 491 kts 274°
2026-04-28 18:24 9.63809 8.91196 39849 ft 491 kts 274°
2026-04-28 18:24 9.63946 8.88913 39894 ft 494 kts 274°
2026-04-28 18:24 9.63543 8.80734 39898 ft 499 kts 261°
2026-04-28 18:25 9.62326 8.73811 39884 ft 499 kts 259°
2026-04-28 18:26 9.60334 8.63472 39893 ft 498 kts 259°
2026-04-28 18:26 9.59022 8.56584 39884 ft 498 kts 259°
2026-04-28 18:27 9.57691 8.49525 39881 ft 498 kts 259°
2026-04-28 18:27 9.56395 8.42641 39882 ft 497 kts 259°
2026-04-28 18:28 9.55108 8.35811 39874 ft 497 kts 259°
2026-04-28 18:28 9.53809 8.28930 39874 ft 497 kts 259°
2026-04-28 18:29 9.52503 8.22018 39867 ft 497 kts 259°
2026-04-28 18:29 9.51198 8.15138 39865 ft 497 kts 259°
2026-04-28 18:30 9.49878 8.08263 39867 ft 497 kts 259°
2026-04-28 18:30 9.48560 8.01406 39870 ft 497 kts 259°
2026-04-28 18:31 9.47232 7.94487 39870 ft 497 kts 259°
2026-04-28 18:31 9.45903 7.87562 39863 ft 497 kts 259°
2026-04-28 18:32 9.44593 7.80746 39864 ft 496 kts 259°
2026-04-28 18:32 9.43273 7.73882 39868 ft 496 kts 259°
2026-04-28 18:33 9.41951 7.67017 39856 ft 496 kts 259°
2026-04-28 18:33 9.40630 7.60169 39863 ft 496 kts 259°
2026-04-28 18:34 9.39307 7.53316 39863 ft 496 kts 259°
2026-04-28 18:34 9.37983 7.46458 39859 ft 496 kts 259°
2026-04-28 18:35 9.36656 7.39599 39852 ft 497 kts 259°
2026-04-28 18:35 9.35327 7.32735 39847 ft 497 kts 259°
2026-04-28 18:36 9.34032 7.25898 39848 ft 497 kts 259°
2026-04-28 18:36 9.32772 7.19016 39850 ft 498 kts 259°
2026-04-28 18:37 9.31507 7.12119 39852 ft 498 kts 259°
2026-04-28 18:37 9.30232 7.05219 39839 ft 498 kts 259°
2026-04-28 18:38 9.28948 6.98330 39843 ft 499 kts 259°
2026-04-28 18:38 9.27612 6.91431 39837 ft 499 kts 259°
2026-04-28 18:39 9.26272 6.84545 39837 ft 499 kts 259°
2026-04-28 18:39 9.24945 6.77687 39829 ft 499 kts 259°
2026-04-28 18:40 9.23612 6.70783 39821 ft 500 kts 259°
2026-04-28 18:40 9.22277 6.63871 39829 ft 500 kts 259°
2026-04-28 18:41 9.20940 6.56957 39824 ft 501 kts 259°
2026-04-28 18:41 9.19603 6.50052 39819 ft 501 kts 259°
2026-04-28 18:42 9.18260 6.43124 39814 ft 502 kts 259°
2026-04-28 18:42 9.16916 6.36195 39816 ft 502 kts 259°
2026-04-28 18:43 9.15569 6.29259 39816 ft 502 kts 259°
2026-04-28 18:43 9.14227 6.22361 39823 ft 502 kts 259°
2026-04-28 18:44 9.12877 6.15424 39816 ft 503 kts 259°
2026-04-28 18:44 9.10881 6.05008 39817 ft 503 kts 262°
2026-04-28 18:45 9.10830 5.97963 39819 ft 502 kts 277°
2026-04-28 18:45 9.11800 5.90964 39832 ft 503 kts 279°
2026-04-28 18:46 9.12920 5.83982 39829 ft 503 kts 279°
2026-04-28 18:46 9.14033 5.76999 39832 ft 503 kts 279°
2026-04-28 18:47 9.15120 5.70005 39831 ft 503 kts 279°
2026-04-28 18:47 9.16195 5.63008 39822 ft 503 kts 279°
2026-04-28 18:48 9.17268 5.56010 39825 ft 503 kts 279°
2026-04-28 18:48 9.18162 5.50181 39830 ft 504 kts 279°
2026-04-28 18:49 9.19052 5.44369 39836 ft 504 kts 279°
2026-04-28 18:49 9.20310 5.36182 39846 ft 503 kts 279°
2026-04-28 18:50 9.21381 5.29176 39843 ft 503 kts 279°
2026-04-28 18:50 9.22449 5.22180 39830 ft 503 kts 279°
2026-04-28 18:51 9.23518 5.15172 39833 ft 503 kts 279°
2026-04-28 18:51 9.24580 5.08212 39835 ft 503 kts 279°
2026-04-28 18:52 9.25645 5.01212 39834 ft 503 kts 279°
2026-04-28 18:52 9.26712 4.94220 39843 ft 503 kts 279°
2026-04-28 18:53 9.27771 4.87225 39837 ft 503 kts 279°
2026-04-28 18:53 9.28829 4.80226 39845 ft 503 kts 279°
2026-04-28 18:54 9.29886 4.73236 39847 ft 503 kts 279°
2026-04-28 18:54 9.30936 4.66283 39851 ft 503 kts 278°
2026-04-28 18:55 9.31992 4.59287 39845 ft 503 kts 278°
2026-04-28 18:55 9.33046 4.52289 39855 ft 502 kts 278°
2026-04-28 18:56 9.34098 4.45300 39850 ft 502 kts 278°
2026-04-28 18:56 9.35149 4.38309 39848 ft 502 kts 278°
2026-04-28 18:57 9.36198 4.31317 39850 ft 502 kts 278°
2026-04-28 18:57 9.37245 4.24331 39862 ft 502 kts 278°
2026-04-28 18:58 9.38289 4.17350 39860 ft 502 kts 278°
2026-04-28 18:58 9.39334 4.10359 39855 ft 502 kts 278°
2026-04-28 18:59 9.40376 4.03376 39851 ft 501 kts 278°
2026-04-28 18:59 9.41416 3.96397 39861 ft 501 kts 278°
2026-04-28 19:00 9.42455 3.89419 39857 ft 501 kts 278°
2026-04-28 19:00 9.43483 3.82495 39897 ft 499 kts 278°
2026-04-28 19:01 9.44511 3.75569 39898 ft 497 kts 278°
2026-04-28 19:01 9.45537 3.68646 39897 ft 496 kts 278°
2026-04-28 19:02 9.46561 3.61733 39891 ft 496 kts 278°
2026-04-28 19:02 9.47582 3.54825 39894 ft 496 kts 278°
2026-04-28 19:03 9.48083 3.47878 39892 ft 495 kts 270°
2026-04-28 19:03 9.48103 3.40889 39893 ft 496 kts 269°
2026-04-28 19:04 9.48055 3.33910 39892 ft 496 kts 269°
2026-04-28 19:04 9.48006 3.26937 39893 ft 495 kts 269°
2026-04-28 19:05 9.47967 3.19957 39893 ft 495 kts 269°
2026-04-28 19:05 9.47920 3.12972 39888 ft 495 kts 269°
2026-04-28 19:06 9.47803 3.07179 39892 ft 495 kts 268°
2026-04-28 19:06 9.47609 2.99027 39881 ft 495 kts 268°
2026-04-28 19:07 9.47456 2.92052 39884 ft 495 kts 269°
2026-04-28 19:07 9.47311 2.85080 39881 ft 495 kts 269°
2026-04-28 19:08 9.47266 2.78154 39878 ft 495 kts 270°
2026-04-28 19:08 9.47304 2.71189 39885 ft 495 kts 270°
2026-04-28 19:09 9.47330 2.64222 39877 ft 494 kts 270°
2026-04-28 19:09 9.47337 2.57260 39877 ft 494 kts 270°
2026-04-28 19:10 9.47335 2.50308 39880 ft 494 kts 270°
2026-04-28 19:10 9.47332 2.43353 39886 ft 494 kts 270°
2026-04-28 19:11 9.47328 2.36405 39884 ft 493 kts 270°
2026-04-28 19:11 9.47322 2.29454 39884 ft 493 kts 269°
2026-04-28 19:12 9.47181 2.22510 39886 ft 493 kts 268°
2026-04-28 19:12 9.46961 2.15576 39888 ft 493 kts 268°
2026-04-28 19:13 9.46756 2.08625 39901 ft 493 kts 268°
2026-04-28 19:13 9.46569 2.01688 39898 ft 493 kts 268°
2026-04-28 19:14 9.46388 1.94756 39902 ft 493 kts 268°
2026-04-28 19:14 9.46229 1.87814 39897 ft 494 kts 269°
2026-04-28 19:15 9.46235 1.80849 39891 ft 495 kts 270°
2026-04-28 19:15 9.46270 1.75047 39891 ft 495 kts 270°
2026-04-28 19:16 9.46289 1.66894 39895 ft 495 kts 269°
2026-04-28 19:16 9.46284 1.59920 39897 ft 495 kts 269°
2026-04-28 19:17 9.46274 1.52951 39894 ft 495 kts 269°
2026-04-28 19:17 9.46264 1.45974 39896 ft 495 kts 269°
2026-04-28 19:18 9.46254 1.39009 39893 ft 495 kts 269°
2026-04-28 19:18 9.46243 1.32083 39891 ft 495 kts 270°
2026-04-28 19:19 9.46231 1.25112 39891 ft 495 kts 270°
2026-04-28 19:19 9.46216 1.18147 39887 ft 495 kts 270°
2026-04-28 19:20 9.46201 1.11180 39890 ft 495 kts 270°
2026-04-28 19:20 9.46754 1.04254 39884 ft 495 kts 283°
2026-04-28 19:21 9.49289 0.97816 39883 ft 494 kts 302°
2026-04-28 19:21 9.53759 0.92573 39881 ft 493 kts 318°
2026-04-28 19:22 9.58078 0.88791 39874 ft 494 kts 320°
2026-04-28 19:22 9.64257 0.83583 39871 ft 495 kts 320°
2026-04-28 19:23 9.69535 0.79095 39862 ft 495 kts 320°
2026-04-28 19:23 9.74792 0.74582 39852 ft 495 kts 320°
2026-04-28 19:24 9.80040 0.70060 39842 ft 495 kts 320°
2026-04-28 19:24 9.85290 0.65536 39841 ft 495 kts 320°
2026-04-28 19:25 9.90546 0.61007 39834 ft 496 kts 320°
2026-04-28 19:25 9.95764 0.56509 39834 ft 496 kts 320°
2026-04-28 19:26 10.01018 0.51979 39832 ft 496 kts 320°
2026-04-28 19:26 10.06280 0.47439 39833 ft 496 kts 320°
2026-04-28 19:27 10.11545 0.42894 39827 ft 497 kts 320°
2026-04-28 19:27 10.16809 0.38349 39833 ft 497 kts 320°
2026-04-28 19:28 10.22070 0.33805 39831 ft 497 kts 319°
2026-04-28 19:28 10.27329 0.29259 39830 ft 496 kts 319°
2026-04-28 19:29 10.31703 0.25477 39836 ft 496 kts 319°
2026-04-28 19:29 10.37817 0.20189 39838 ft 496 kts 319°
2026-04-28 19:30 10.43066 0.15647 39841 ft 496 kts 319°
2026-04-28 19:30 10.48313 0.11104 39839 ft 495 kts 319°
2026-04-28 19:31 10.53552 0.06566 39843 ft 495 kts 319°
2026-04-28 19:31 10.58795 0.02023 39848 ft 494 kts 319°
2026-04-28 19:32 10.64025 -0.02512 39845 ft 494 kts 319°
2026-04-28 19:32 10.69252 -0.07031 39766 ft 492 kts 319°
2026-04-28 19:33 10.71823 -0.09254 39548 ft 491 kts 319°
2026-04-28 19:33 10.74455 -0.11531 39307 ft 491 kts 319°
2026-04-28 19:33 10.77057 -0.13782 39070 ft 491 kts 319°
2026-04-28 19:33 10.79689 -0.16061 38819 ft 490 kts 319°
2026-04-28 19:34 10.82280 -0.18304 38272 ft 489 kts 319°
2026-04-28 19:34 10.84873 -0.20549 37647 ft 488 kts 319°
2026-04-28 19:34 10.87455 -0.22785 37014 ft 488 kts 319°
2026-04-28 19:34 10.90009 -0.24998 36384 ft 488 kts 319°
2026-04-28 19:35 10.92598 -0.27241 35731 ft 489 kts 320°
2026-04-28 19:35 10.95187 -0.29485 35066 ft 490 kts 320°
2026-04-28 19:35 10.97788 -0.31740 34349 ft 492 kts 320°
2026-04-28 19:35 11.00431 -0.34031 33602 ft 494 kts 320°
2026-04-28 19:36 11.03010 -0.36268 33047 ft 490 kts 320°
2026-04-28 19:36 11.05599 -0.38517 32513 ft 487 kts 320°
2026-04-28 19:36 11.08190 -0.40768 31992 ft 483 kts 320°
2026-04-28 19:36 11.10738 -0.42982 31444 ft 480 kts 320°
2026-04-28 19:37 11.13269 -0.45181 30933 ft 477 kts 320°
2026-04-28 19:37 11.14085 -0.45891 30765 ft 476 kts 320°
2026-04-28 19:37 11.18253 -0.49514 29905 ft 472 kts 320°
2026-04-28 19:37 11.20737 -0.51674 29349 ft 469 kts 320°
2026-04-28 19:38 11.23209 -0.53824 28835 ft 465 kts 320°
2026-04-28 19:38 11.25651 -0.55948 28335 ft 460 kts 320°
2026-04-28 19:38 11.28079 -0.58061 27840 ft 456 kts 320°
2026-04-28 19:38 11.30481 -0.60151 27352 ft 452 kts 320°
2026-04-28 19:39 11.32865 -0.62227 26868 ft 449 kts 320°
2026-04-28 19:39 11.35226 -0.64282 26370 ft 445 kts 320°
2026-04-28 19:39 11.37580 -0.66332 25887 ft 442 kts 320°
2026-04-28 19:39 11.39906 -0.68358 25394 ft 439 kts 320°
2026-04-28 19:40 11.42221 -0.70376 24916 ft 436 kts 319°
2026-04-28 19:40 11.44489 -0.72352 24433 ft 434 kts 319°
2026-04-28 19:40 11.46036 -0.73700 24112 ft 432 kts 319°
2026-04-28 19:40 11.49046 -0.76325 23465 ft 429 kts 319°
2026-04-28 19:41 11.51305 -0.78295 22912 ft 426 kts 319°
2026-04-28 19:41 11.53536 -0.80242 22405 ft 421 kts 319°
2026-04-28 19:41 11.55760 -0.82182 21917 ft 417 kts 319°
2026-04-28 19:41 11.57213 -0.83451 21607 ft 415 kts 319°
2026-04-28 19:42 11.59393 -0.85354 21104 ft 411 kts 319°
2026-04-28 19:42 11.61556 -0.87242 20626 ft 407 kts 319°
2026-04-28 19:42 11.63700 -0.89115 20134 ft 404 kts 319°
2026-04-28 19:42 11.65829 -0.90974 19666 ft 402 kts 319°
2026-04-28 19:43 11.67950 -0.92827 19181 ft 400 kts 319°
2026-04-28 19:43 11.70057 -0.94668 18714 ft 398 kts 320°
2026-04-28 19:43 11.72158 -0.96504 18234 ft 396 kts 320°
2026-04-28 19:43 11.74246 -0.98329 17721 ft 394 kts 320°
2026-04-28 19:44 11.76317 -1.00140 17231 ft 391 kts 320°
2026-04-28 19:44 11.78372 -1.01937 16760 ft 388 kts 320°
2026-04-28 19:44 11.80418 -1.03726 16294 ft 385 kts 320°
2026-04-28 19:44 11.82443 -1.05498 15815 ft 382 kts 320°
2026-04-28 19:45 11.84456 -1.07259 15367 ft 380 kts 320°
2026-04-28 19:45 11.86431 -1.08987 14908 ft 378 kts 320°
2026-04-28 19:45 11.88419 -1.10728 14438 ft 375 kts 320°
2026-04-28 19:45 11.90390 -1.12454 13986 ft 373 kts 320°
2026-04-28 19:46 11.92355 -1.14175 13512 ft 371 kts 320°
2026-04-28 19:46 11.94306 -1.15883 13031 ft 368 kts 320°
2026-04-28 19:46 11.96241 -1.17579 12573 ft 366 kts 320°
2026-04-28 19:46 11.98168 -1.19267 12118 ft 364 kts 320°
2026-04-28 19:47 12.00080 -1.20943 11659 ft 361 kts 320°
2026-04-28 19:47 12.01990 -1.22600 11221 ft 359 kts 322°
2026-04-28 19:47 12.04129 -1.23894 10884 ft 359 kts 340°
2026-04-28 19:47 12.06537 -1.24574 10479 ft 356 kts 350°
2026-04-28 19:48 12.08925 -1.25070 10269 ft 345 kts 351°
2026-04-28 19:48 12.11238 -1.25551 10067 ft 334 kts 351°
2026-04-28 19:48 12.13477 -1.26023 9871 ft 323 kts 350°
2026-04-28 19:48 12.15627 -1.26481 9572 ft 318 kts 350°
2026-04-28 19:49 12.17775 -1.26940 9212 ft 313 kts 350°
2026-04-28 19:49 12.19894 -1.27396 8856 ft 309 kts 350°
2026-04-28 19:49 12.21989 -1.27848 8496 ft 306 kts 350°
2026-04-28 19:49 12.24045 -1.28292 8004 ft 297 kts 350°
2026-04-28 19:50 12.28030 -1.29154 7208 ft 292 kts 349°
2026-04-28 19:50 12.30004 -1.29582 6914 ft 289 kts 349°
2026-04-28 19:50 12.31968 -1.30008 6563 ft 287 kts 349°
2026-04-28 19:51 12.33912 -1.30430 6247 ft 283 kts 349°
2026-04-28 19:51 12.35815 -1.30843 6022 ft 275 kts 349°
2026-04-28 19:51 12.37657 -1.31243 5826 ft 266 kts 349°
2026-04-28 19:51 12.39449 -1.31632 5588 ft 260 kts 349°
2026-04-28 19:52 12.41199 -1.32012 5351 ft 255 kts 348°
2026-04-28 19:52 12.42925 -1.32393 5104 ft 253 kts 347°
2026-04-28 19:52 12.44548 -1.33071 4800 ft 253 kts 324°
2026-04-28 19:52 12.45744 -1.34371 4460 ft 253 kts 306°
2026-04-28 19:53 12.46717 -1.35871 4104 ft 253 kts 303°
2026-04-28 19:53 12.47660 -1.37372 3808 ft 249 kts 303°
2026-04-28 19:53 12.48572 -1.38830 3711 ft 237 kts 301°
2026-04-28 19:53 12.49099 -1.40371 3622 ft 225 kts 274°
2026-04-28 19:54 12.48774 -1.41874 3525 ft 214 kts 239°
2026-04-28 19:54 12.47795 -1.42971 3428 ft 211 kts 214°
2026-04-28 19:54 12.46524 -1.43716 3369 ft 210 kts 210°
2026-04-28 19:54 12.45283 -1.44485 3072 ft 206 kts 214°
2026-04-28 19:55 12.44144 -1.45296 2802 ft 195 kts 215°
2026-04-28 19:55 12.43043 -1.46028 2540 ft 183 kts 214°
2026-04-28 19:55 12.42014 -1.46719 2302 ft 172 kts 214°
2026-04-28 19:55 12.41044 -1.47376 2068 ft 162 kts 214°
2026-04-28 19:56 12.40137 -1.47988 1839 ft 156 kts 214°
2026-04-28 19:56 12.39253 -1.48589 1677 ft 149 kts 214°
2026-04-28 19:56 12.38392 -1.49195 1465 ft 147 kts 214°
2026-04-28 19:56 12.37547 -1.49773 1296 ft 151 kts 211°
2026-04-28 19:57 12.36655 -1.50340 1096 ft 150 kts 211°
2026-04-28 19:57 12.35789 -1.50917 1013 ft 140 kts 213°
2026-04-28 19:57 12.35144 -1.51352 1021 ft 71 kts 213°
2026-04-28 19:57 12.34988 -1.51467 1029 ft 0 kts 242°
2026-04-28 19:58 12.34994 -1.51491 1028 ft 6 kts 294°
2026-04-28 19:58 12.35024 -1.51536 1028 ft 10 kts 305°
2026-04-28 19:58 12.35057 -1.51568 1025 ft 3 kts 346°
2026-04-28 19:58 12.35081 -1.51558 1027 ft 6 kts 25°
2026-04-28 19:59 12.35133 -1.51527 1024 ft 11 kts 33°
2026-04-28 19:59 12.35208 -1.51477 1023 ft 15 kts 33°
2026-04-28 19:59 12.35307 -1.51412 1023 ft 19 kts 33°
2026-04-28 19:59 12.35402 -1.51347 1021 ft 17 kts 33°
2026-04-28 20:00 12.35431 -1.51342 1021 ft 2 kts 349°
2026-04-28 20:00 12.35443 -1.51351 1021 ft 1 kts 314°
2026-04-28 20:00 12.35448 -1.51359 1021 ft 0 kts 306°